Weather in Port Harcourt

Nigeria     4°47′19″N   7°03′10″E
temp.,
°C
wind,
m/s
gust,
m/s
humid.,
%
clouds,
%
prec.,
mm/h
press.,
hPa
HPBL,
m
24 january, mon
mon2401:00+26wsw25796 0.0 1010169
04:00+25wnw23845 0.0 1009116
07:00+25wnw12865 0.0 101032
10:00+30nnw34585 0.0 1012985
13:00+35n34215 0.0 10091859
16:00+36nnw221449 0.0 10062418
19:00+29ssw59582 0.0 1008323
22:00+27sw47780 0.0 1010468
25 january, tue
tue2501:00+26wsw37825 0.0 1009412
04:00+25w13871 0.0 100889
07:00+25nw238993 0.0 1009103
10:00+30n345911 0.0 1012938
13:00+35nne34255 0.0 10082042
16:00+37nne23165 0.0 10052475
19:00+28s5870100 0.0 1007423
22:00+27ssw477862 0.0 1010542
26 january, wed
wed2601:00+26sw368198 0.0 1008406
04:00+25wsw118648 0.0 100841
07:00+25w11885 0.0 101034
10:00+30nw11627 0.0 10121008
13:00+35n133186 0.0 10092081
16:00+36sse131910 0.0 10062575
19:00+28ssw586799 0.0 1008542
22:00+27sw57765 0.0 1010704
27 january, thu
thu2701:00+26sw37790 0.0 1009604
04:00+26w23818 0.0 1009154
07:00+25w11848 0.0 101030
10:00+30sw115998 0.1 10121141
13:00+35nnw123639 0.1 10092450
16:00+35s443410 0.0 10062319
19:00+29ssw576191 0.0 1009724
22:00+27sw47700 0.0 1011677
28 january, fri
fri2801:00+27wsw25745 0.0 1010507
04:00+26wsw25795 0.0 1009315
07:00+25wnw118251 0.0 101031
10:00+30nw015922 0.0 10121058
13:00+35nnw133718 0.0 10092065
16:00+36sse133092 0.0 10062578
19:00+28ssw686655 0.0 1008524
22:00+28sw467293 0.0 1010614